EW4529 Weather Reports


Display with metric or nautical units.
time (UTC)temp
F
wind
direction
speed
MPH
gust
MPH
rain 1hr
in
rain 24hr
in
rain mn
in
humidity
%
barometer
mb
20260906212318 81 58 0.0 3.0 0.00 0.00 0.00 49 1014.9
20260906211333 81 260 0.0 3.0 0.00 0.00 0.00 48 1014.9
20260906210324 81 352 1.0 5.0 0.00 0.00 0.00 49 1014.9
20260906205323 82 213 0.0 2.0 0.00 0.00 0.00 48 1014.8
20260906204338 82 145 0.0 2.0 0.00 0.00 0.00 49 1014.8
20260906203337 82 343 1.0 4.0 0.00 0.00 0.00 48 1014.8
20260906202311 82 329 1.0 3.0 0.00 0.00 0.00 50 1014.9
20260906201331 82 37 2.0 6.0 0.00 0.00 0.00 48 1014.9
20260906200322 82 13 1.0 2.0 0.00 0.00 0.00 50 1014.9
20260906195319 81 330 1.0 7.0 0.00 0.00 0.00 49 1014.9
20260906194321 82 7 2.0 4.0 0.00 0.00 0.00 49 1014.9
20260906193340 82 20 1.0 5.0 0.00 0.00 0.00 52 1015.0
20260906192334 83 19 1.0 4.0 0.00 0.00 0.00 50 1015.0
20260906191323 82 13 1.0 4.0 0.00 0.00 0.00 50 1015.0
20260906190320 82 338 2.0 5.0 0.00 0.00 0.00 50 1015.0
20260906185337 82 335 0.0 4.0 0.00 0.00 0.00 51 1015.1
20260906184311 82 354 1.0 4.0 0.00 0.00 0.00 52 1015.2
20260906183320 80 172 0.0 4.0 0.00 0.00 0.00 52 1015.3
20260906182335 81 321 1.0 4.0 0.00 0.00 0.00 52 1015.3
20260906181335 80 61 2.0 4.0 0.00 0.00 0.00 54 1015.4
20260906180327 79 305 2.0 8.0 0.00 0.00 0.00 55 1015.6
20260906175320 79 303 1.0 11.0 0.00 0.00 0.00 58 1015.5
20260906174317 80 277 2.0 7.0 0.00 0.00 0.00 57 1015.6
20260906173308 80 45 0.0 4.0 0.00 0.00 0.00 60 1015.5
20260906172328 79 267 1.0 6.0 0.00 0.00 0.00 57 1015.6
20260906171352 78 25 3.0 7.0 0.00 0.00 0.00 61 1015.6
20260906170317 78 264 1.0 4.0 0.00 0.00 0.00 62 1015.6
20260906165313 78 243 1.0 6.0 0.00 0.00 0.00 63 1015.7
20260906164329 78 175 1.0 9.0 0.00 0.00 0.00 63 1015.6
20260906163319 78 345 2.0 4.0 0.00 0.00 0.00 62 1015.8
20260906162314 78 17 1.0 5.0 0.00 0.00 0.00 62 1015.6
20260906161310 78 98 2.0 5.0 0.00 0.00 0.00 64 1015.6
20260906160325 77 319 1.0 4.0 0.00 0.00 0.00 65 1015.8
20260906155327 79 307 2.0 4.0 0.00 0.00 0.00 63 1015.8
20260906154315 78 359 1.0 3.0 0.00 0.00 0.00 66 1015.8
20260906153311 76 330 1.0 4.0 0.00 0.00 0.00 65 1015.8
20260906152327 74 72 0.0 5.0 0.00 0.00 0.00 70 1015.9
20260906151327 74 16 2.0 4.0 0.00 0.00 0.00 68 1015.9
20260906150337 75 35 1.0 6.0 0.00 0.00 0.00 66 1015.9
20260906145339 77 18 0.0 5.0 0.00 0.00 0.00 65 1015.8
20260906144338 76 28 1.0 4.0 0.00 0.00 0.00 66 1015.7
20260906143311 75 219 0.0 3.0 0.00 0.00 0.00 68 1015.6
20260906142328 74 12 1.0 4.0 0.00 0.00 0.00 68 1015.7
20260906141322 74 356 0.0 6.0 0.00 0.00 0.00 69 1015.6
20260906140312 74 345 1.0 4.0 0.00 0.00 0.00 69 1015.6
20260906135337 73 357 1.0 5.0 0.00 0.00 0.00 70 1015.4
20260906134332 72 107 1.0 5.0 0.00 0.00 0.00 73 1015.5
20260906133350 71 307 1.0 4.0 0.00 0.00 0.00 75 1015.4
20260906132318 71 357 0.0 5.0 0.00 0.00 0.00 76 1015.4
20260906131312 71 14 0.0 3.0 0.00 0.00 0.00 77 1015.4
20260906130328 70 351 0.0 4.0 0.00 0.00 0.00 79 1015.4
20260906125323 69 245 1.0 4.0 0.00 0.00 0.00 79 1015.4
20260906124340 69 221 0.0 4.0 0.00 0.00 0.00 81 1015.2
20260906123308 68 351 0.0 2.0 0.00 0.00 0.00 82 1015.2
20260906122324 67 341 0.0 3.0 0.00 0.00 0.00 84 1015.2
20260906121320 67 225 0.0 2.0 0.00 0.00 0.00 86 1015.1
20260906120317 66 15 0.0 2.0 0.00 0.00 0.00 88 1015.0
20260906115318 65 8 0.0 5.0 0.00 0.00 0.00 89 1014.9
20260906114334 63 9 1.0 4.0 0.00 0.00 0.00 92 1014.8
20260906113325 63 8 0.0 2.0 0.00 0.00 0.00 93 1014.6
20260906112321 62 1 0.0 1.0 0.00 0.00 0.00 94 1014.4
20260906111318 61 341 0.0 1.0 0.00 0.00 0.00 95 1014.3
20260906110354 61 71 0.0 0.0 0.00 0.00 0.00 95 1014.3
20260906105327 61 124 0.0 0.0 0.00 0.00 0.00 94 1014.1
20260906104347 61 124 0.0 0.0 0.00 0.00 0.00 94 1014.0
20260906103316 61 124 0.0 0.0 0.00 0.00 0.00 93 1014.0
20260906102312 61 124 0.0 1.0 0.00 0.00 0.00 93 1013.8
20260906101326 61 124 0.0 0.0 0.00 0.00 0.00 92 1013.6
20260906100347 62 124 0.0 0.0 0.00 0.00 0.00 92 1013.5
20260906095319 62 124 0.0 0.0 0.00 0.00 0.00 92 1013.4
20260906094331 62 125 0.0 1.0 0.00 0.00 0.00 92 1013.2
20260906093321 62 331 0.0 1.0 0.00 0.00 0.00 91 1013.0
20260906092314 62 330 0.0 0.0 0.00 0.00 0.00 91 1012.9
20260906091310 63 330 0.0 0.0 0.00 0.00 0.00 91 1012.8
20260906090326 63 330 0.0 2.0 0.00 0.00 0.00 90 1012.7
20260906085314 63 1 0.0 2.0 0.00 0.00 0.00 91 1012.7
20260906084311 63 29 0.0 0.0 0.00 0.00 0.00 91 1012.7
20260906083308 63 352 0.0 0.0 0.00 0.00 0.00 90 1012.5
20260906082309 63 352 0.0 0.0 0.00 0.00 0.00 90 1012.4
20260906081326 63 352 0.0 0.0 0.00 0.00 0.00 90 1012.4
20260906080314 63 352 0.0 0.0 0.00 0.00 0.00 90 1012.4
20260906075311 63 352 0.0 0.0 0.00 0.00 0.00 90 1012.3
20260906074325 63 352 0.0 0.0 0.00 0.00 0.00 90 1012.3
20260906073315 63 352 0.0 1.0 0.00 0.00 0.00 90 1012.4
20260906072311 63 331 0.0 0.0 0.00 0.00 0.00 90 1012.5
20260906071327 63 331 0.0 0.0 0.00 0.00 0.00 89 1012.4
20260906070326 63 333 0.0 0.0 0.00 0.00 0.00 89 1012.3
20260906065321 63 321 0.0 0.0 0.00 0.00 0.00 89 1012.4
20260906064311 63 321 0.0 0.0 0.00 0.00 0.00 88 1012.4
20260906063347 64 320 0.0 0.0 0.00 0.00 0.00 88 1012.5
20260906062322 64 320 0.0 0.0 0.00 0.00 0.00 88 1012.5
20260906061344 64 319 0.0 0.0 0.00 0.00 0.00 88 1012.6
20260906060314 64 319 0.0 0.0 0.00 0.00 0.00 88 1012.7
20260906055310 64 319 0.0 0.0 0.00 0.00 0.00 88 1012.7
20260906054325 64 319 0.0 0.0 0.00 0.00 0.00 88 1012.7
20260906053316 64 301 0.0 0.0 0.00 0.00 0.00 89 1012.8
20260906052313 63 301 0.0 0.0 0.00 0.00 0.00 89 1012.9
20260906051328 64 301 0.0 0.0 0.00 0.00 0.00 88 1012.9
20260906050324 64 301 0.0 0.0 0.00 0.00 0.00 88 1012.9
20260906045324 64 301 0.0 0.0 0.00 0.00 0.00 88 1012.8
20260906044345 64 301 0.0 0.0 0.00 0.00 0.00 88 1013.0
20260906043315 64 301 0.0 0.0 0.00 0.00 0.00 87 1012.9
20260906042308 65 301 0.0 0.0 0.00 0.00 0.00 86 1012.9
20260906041322 65 301 0.0 0.0 0.00 0.00 0.00 86 1013.0
20260906040311 65 301 0.0 0.0 0.00 0.00 0.00 85 1012.8
20260906035333 65 301 0.0 0.0 0.00 0.00 0.00 84 1012.7
20260906034328 66 301 0.0 0.0 0.00 0.00 0.00 83 1012.8
20260906033318 66 301 0.0 0.0 0.00 0.00 0.00 82 1012.8
20260906032313 66 301 0.0 0.0 0.00 0.00 0.00 81 1012.7
20260906031330 67 301 0.0 0.0 0.00 0.00 0.00 80 1012.6
20260906030321 67 301 0.0 0.0 0.00 0.00 0.00 79 1012.5
20260906025319 67 301 0.0 0.0 0.00 0.00 0.00 79 1012.5
20260906024315 67 301 0.0 0.0 0.00 0.00 0.00 80 1012.4
20260906023334 68 301 0.0 0.0 0.00 0.00 0.00 79 1012.4
20260906022327 68 301 0.0 0.0 0.00 0.00 0.00 79 1012.4
20260906021325 68 301 0.0 0.0 0.00 0.00 0.00 78 1012.5
20260906020327 68 301 0.0 1.0 0.00 0.00 0.00 79 1012.5
20260906015322 67 347 0.0 0.0 0.00 0.00 0.00 79 1012.3
20260906014318 68 347 0.0 0.0 0.00 0.00 0.00 80 1012.4
20260906013333 68 347 0.0 0.0 0.00 0.00 0.00 79 1012.3
20260906012329 68 347 0.0 0.0 0.00 0.00 0.00 80 1012.2
20260906011323 68 347 0.0 0.0 0.00 0.00 0.00 78 1012.0
20260906010318 69 347 0.0 0.0 0.00 0.00 0.00 78 1011.9
20260906005334 69 347 0.0 0.0 0.00 0.00 0.00 76 1011.8
20260906004322 70 347 0.0 0.0 0.00 0.00 0.00 75 1011.7
20260906003319 70 347 0.0 0.0 0.00 0.00 0.00 76 1011.6
20260906002334 70 347 0.0 0.0 0.00 0.00 0.00 75 1011.5
20260906001331 71 347 0.0 0.0 0.00 0.00 0.00 74 1011.3
20260906000322 72 347 0.0 0.0 0.00 0.00 0.00 72 1011.2
20260905235340 72 347 0.0 0.0 0.00 0.00 0.00 70 1011.1
20260905234314 73 347 0.0 0.0 0.00 0.00 0.00 68 1011.0
20260905233333 74 347 0.0 0.0 0.00 0.00 0.00 65 1010.8
20260905232320 75 347 0.0 0.0 0.00 0.00 0.00 62 1010.8
20260905231344 76 347 0.0 0.0 0.00 0.00 0.00 61 1010.8
20260905230314 76 347 0.0 0.0 0.00 0.00 0.00 60 1010.8
20260905225310 77 347 0.0 1.0 0.00 0.00 0.00 57 1010.7
20260905224328 77 354 0.0 2.0 0.00 0.00 0.00 56 1010.8
20260905223326 78 345 0.0 2.0 0.00 0.00 0.00 56 1010.7
20260905222323 78 345 1.0 3.0 0.00 0.00 0.00 53 1010.6
20260905221311 79 342 0.0 5.0 0.00 0.00 0.00 52 1010.6
20260905220313 80 25 1.0 3.0 0.00 0.00 0.00 50 1010.5
20260905215332 81 349 1.0 4.0 0.00 0.00 0.00 50 1010.5
20260905214328 82 329 1.0 9.0 0.00 0.00 0.00 48 1010.5
20260905213325 81 308 0.0 2.0 0.00 0.00 0.00 48 1010.4